SWA1025 KSAN-KLAX

Flight info

Callsign SWA1025
Flight time N/A
Altitude 10000
Route CWARD2 SLI
Aircraft B738/M-SDE2E3FGHIRWXY/LB1

Departure

Time 2026-04-21 10:10
Airport San Diego International Airport (KSAN)

Arrival

Time N/A
Airport Los Angeles International Airport (KLAX)
Time Latitude Longitude Altitude Speed Heading
2026-04-21 10:02 32.73304 -117.19734 21 ft 1 kts 21°
2026-04-21 10:02 32.73299 -117.19737 21 ft 0 kts 16°
2026-04-21 10:03 32.73299 -117.19736 21 ft 0 kts 16°
2026-04-21 10:05 32.73315 -117.19731 21 ft 4 kts 16°
2026-04-21 10:05 32.73344 -117.19720 21 ft 5 kts 16°
2026-04-21 10:05 32.73395 -117.19694 21 ft 8 kts 46°
2026-04-21 10:06 32.73409 -117.19617 21 ft 10 kts 102°
2026-04-21 10:06 32.73389 -117.19530 21 ft 11 kts 106°
2026-04-21 10:06 32.73365 -117.19434 21 ft 12 kts 106°
2026-04-21 10:06 32.73338 -117.19316 21 ft 18 kts 105°
2026-04-21 10:07 32.73291 -117.19115 21 ft 29 kts 105°
2026-04-21 10:07 32.73237 -117.18896 21 ft 27 kts 106°
2026-04-21 10:07 32.73183 -117.18681 21 ft 26 kts 107°
2026-04-21 10:07 32.73131 -117.18469 21 ft 26 kts 105°
2026-04-21 10:08 32.73083 -117.18265 22 ft 24 kts 106°
2026-04-21 10:08 32.73035 -117.18069 22 ft 25 kts 106°
2026-04-21 10:08 32.72987 -117.17870 22 ft 24 kts 107°
2026-04-21 10:08 32.72953 -117.17720 23 ft 14 kts 97°
2026-04-21 10:09 32.72954 -117.17685 23 ft 0 kts 81°
2026-04-21 10:09 32.72955 -117.17680 23 ft 1 kts 81°
2026-04-21 10:09 32.72980 -117.17621 23 ft 16 kts 28°
2026-04-21 10:10 32.73067 -117.17773 23 ft 42 kts 285°
2026-04-21 10:10 32.73228 -117.18445 22 ft 129 kts 286°
2026-04-21 10:10 32.73523 -117.19692 433 ft 173 kts 285°
2026-04-21 10:10 32.73778 -117.20982 1611 ft 161 kts 283°
2026-04-21 10:11 32.74134 -117.22298 2086 ft 178 kts 306°
2026-04-21 10:11 32.75044 -117.23334 2655 ft 190 kts 319°
2026-04-21 10:11 32.75981 -117.24549 3228 ft 205 kts 307°
2026-04-21 10:11 32.76799 -117.25995 3793 ft 220 kts 302°
2026-04-21 10:12 32.77634 -117.27573 4367 ft 234 kts 302°
2026-04-21 10:12 32.78521 -117.29230 5021 ft 243 kts 302°
2026-04-21 10:12 32.79429 -117.30905 5823 ft 245 kts 301°
2026-04-21 10:12 32.80392 -117.32578 6610 ft 248 kts 304°
2026-04-21 10:13 32.81451 -117.34228 7269 ft 257 kts 305°
2026-04-21 10:13 32.82560 -117.35904 8092 ft 262 kts 305°
2026-04-21 10:13 32.83695 -117.37633 8662 ft 277 kts 304°
2026-04-21 10:13 32.84900 -117.39497 9278 ft 290 kts 304°
2026-04-21 10:14 32.86135 -117.41412 9849 ft 297 kts 304°
2026-04-21 10:14 32.87408 -117.43387 10039 ft 298 kts 304°
2026-04-21 10:14 32.88666 -117.45334 10055 ft 296 kts 304°
2026-04-21 10:14 32.89902 -117.47250 10058 ft 295 kts 303°
2026-04-21 10:15 32.91161 -117.49207 10056 ft 295 kts 303°
2026-04-21 10:15 32.92437 -117.51193 10040 ft 295 kts 303°
2026-04-21 10:15 32.93690 -117.53144 10039 ft 294 kts 303°
2026-04-21 10:15 32.94924 -117.55064 10040 ft 295 kts 303°
2026-04-21 10:16 32.96171 -117.57007 10040 ft 295 kts 303°
2026-04-21 10:16 32.97430 -117.58969 10036 ft 294 kts 303°
2026-04-21 10:16 32.98661 -117.60890 10036 ft 295 kts 303°
2026-04-21 10:16 32.99916 -117.62850 10038 ft 295 kts 303°
2026-04-21 10:17 33.01161 -117.64795 10039 ft 296 kts 304°
2026-04-21 10:17 33.02405 -117.66739 10034 ft 296 kts 303°
2026-04-21 10:17 33.03657 -117.68695 10032 ft 295 kts 303°
2026-04-21 10:17 33.04895 -117.70632 10033 ft 295 kts 303°
2026-04-21 10:18 33.06096 -117.72479 10031 ft 296 kts 306°
2026-04-21 10:18 33.07544 -117.74273 10035 ft 299 kts 313°
2026-04-21 10:18 33.09123 -117.75899 10036 ft 300 kts 316°
2026-04-21 10:18 33.10741 -117.77476 10034 ft 300 kts 316°
2026-04-21 10:19 33.12345 -117.79046 10036 ft 300 kts 316°
2026-04-21 10:19 33.13959 -117.80654 9966 ft 300 kts 315°
2026-04-21 10:19 33.15546 -117.82258 9931 ft 297 kts 315°
2026-04-21 10:19 33.17110 -117.83850 9927 ft 298 kts 315°
2026-04-21 10:20 33.18720 -117.85438 9928 ft 299 kts 319°
2026-04-21 10:20 33.20529 -117.86653 9932 ft 305 kts 336°
2026-04-21 10:20 33.22620 -117.87299 9932 ft 308 kts 346°
2026-04-21 10:20 33.24733 -117.87727 9929 ft 308 kts 348°
2026-04-21 10:21 33.26837 -117.88139 9929 ft 308 kts 347°
2026-04-21 10:21 33.28976 -117.88602 9928 ft 308 kts 346°
2026-04-21 10:21 33.31067 -117.89092 9927 ft 309 kts 346°
2026-04-21 10:21 33.33202 -117.89618 9931 ft 309 kts 345°
2026-04-21 10:22 33.35299 -117.90142 9934 ft 309 kts 345°
2026-04-21 10:22 33.37423 -117.90675 9927 ft 308 kts 345°
2026-04-21 10:22 33.39498 -117.91303 9929 ft 309 kts 341°
2026-04-21 10:22 33.41557 -117.92022 9926 ft 309 kts 340°
2026-04-21 10:23 33.43616 -117.92778 9929 ft 308 kts 339°
2026-04-21 10:23 33.45684 -117.93546 9929 ft 308 kts 339°
2026-04-21 10:23 33.47727 -117.94298 9937 ft 309 kts 339°
2026-04-21 10:23 33.49802 -117.95057 9935 ft 309 kts 340°
2026-04-21 10:24 33.51863 -117.95807 9928 ft 307 kts 340°
2026-04-21 10:24 33.53931 -117.96559 9930 ft 308 kts 340°
2026-04-21 10:24 33.55977 -117.97304 9940 ft 308 kts 340°
2026-04-21 10:24 33.58048 -117.98058 9943 ft 307 kts 340°
2026-04-21 10:25 33.60105 -117.98807 9952 ft 308 kts 340°
2026-04-21 10:25 33.62158 -117.99556 9938 ft 308 kts 340°
2026-04-21 10:25 33.64204 -118.00303 9942 ft 305 kts 340°
2026-04-21 10:25 33.66247 -118.01048 9948 ft 308 kts 340°
2026-04-21 10:26 33.68303 -118.01800 9949 ft 309 kts 340°
2026-04-21 10:26 33.70349 -118.02547 9946 ft 309 kts 340°
2026-04-21 10:26 33.72409 -118.03300 9947 ft 309 kts 339°
2026-04-21 10:26 33.74476 -118.04058 9946 ft 309 kts 338°
2026-04-21 10:27 33.76470 -118.05049 9946 ft 304 kts 326°
2026-04-21 10:27 33.78018 -118.06662 9947 ft 294 kts 300°
2026-04-21 10:27 33.78798 -118.08885 9947 ft 284 kts 276°
2026-04-21 10:27 33.79053 -118.11214 9947 ft 283 kts 272°
2026-04-21 10:28 33.79302 -118.13550 9944 ft 283 kts 273°
2026-04-21 10:28 33.79588 -118.15903 9940 ft 283 kts 274°
2026-04-21 10:28 33.79879 -118.18220 9950 ft 281 kts 274°
2026-04-21 10:28 33.80168 -118.20562 9947 ft 283 kts 274°
2026-04-21 10:29 33.80449 -118.22892 9951 ft 283 kts 274°
2026-04-21 10:29 33.80729 -118.25230 9947 ft 283 kts 274°
2026-04-21 10:29 33.81010 -118.27569 9946 ft 283 kts 274°
2026-04-21 10:29 33.81292 -118.29929 9486 ft 297 kts 274°
2026-04-21 10:30 33.81552 -118.32474 8208 ft 320 kts 273°
2026-04-21 10:30 33.81804 -118.35159 7104 ft 330 kts 276°
2026-04-21 10:30 33.82091 -118.37806 6819 ft 312 kts 275°
2026-04-21 10:30 33.82415 -118.40328 6566 ft 296 kts 277°
2026-04-21 10:31 33.82764 -118.42741 6313 ft 282 kts 278°
2026-04-21 10:31 33.83080 -118.45029 6058 ft 269 kts 277°
2026-04-21 10:31 33.83359 -118.47212 5814 ft 258 kts 276°
2026-04-21 10:31 33.83615 -118.49330 5565 ft 250 kts 276°
2026-04-21 10:32 33.83858 -118.51392 5313 ft 248 kts 276°
2026-04-21 10:32 33.84102 -118.53487 5067 ft 254 kts 277°
2026-04-21 10:32 33.84349 -118.55588 4816 ft 254 kts 277°
2026-04-21 10:32 33.84600 -118.57710 4563 ft 255 kts 277°
2026-04-21 10:33 33.84848 -118.59795 4312 ft 254 kts 277°
2026-04-21 10:33 33.85096 -118.61900 4065 ft 253 kts 277°
2026-04-21 10:33 33.85340 -118.63973 3953 ft 249 kts 277°
2026-04-21 10:33 33.85585 -118.66056 3953 ft 251 kts 277°
2026-04-21 10:34 33.85829 -118.68136 3951 ft 250 kts 277°
2026-04-21 10:34 33.86075 -118.70231 3952 ft 251 kts 277°
2026-04-21 10:34 33.86320 -118.72305 3952 ft 251 kts 277°
2026-04-21 10:34 33.86568 -118.74401 3950 ft 252 kts 277°
2026-04-21 10:35 33.86813 -118.76472 3951 ft 252 kts 277°
2026-04-21 10:35 33.87063 -118.78559 3951 ft 252 kts 276°
2026-04-21 10:35 33.87313 -118.80657 3949 ft 252 kts 276°